Regional Weather Roundup
Issued by NWS

Home | Current Version | Previous Version | Graphics & Text | Print | Product List | Glossary On
Versions: 1 2 3 4 5 6 7 8 9 10 11 12 13 14 15 16 17 18 19 20 21 22 23 24 25 26 27 28 29 30 31 32 33 34 35 36 37 38 39 40 41 42 43 44 45 46 47 48 49 50
000
ASUS44 KMEG 140400
RWRTN
TENNESSEE HOURLY STATE WEATHER ROUNDUP
NATIONAL WEATHER SERVICE MEMPHIS TN
1100 PM CDT SUN JUL 13 2014

TNZ002-004-019-021-049-052-054-088>092-140500-
WEST TENNESSEE

CITY           SKY/WX    TMP DP  RH WIND       PRES   REMARKS
MEMPHIS INTL   PTCLDY    83  74  74 S7        30.00S
NWS MEMPHIS      N/A     83 N/A N/A MISG        N/A
JACKSON        CLEAR     78  74  87 S7        29.99F
DYERSBURG      CLEAR     81  64  57 S3        29.98S
UNION CITY     CLEAR     81  73  78 S3        29.96S
PARIS          CLEAR     75  72  88 SW5       29.99F
LEXINGTON      CLEAR     79  73  83 S6        30.00F
SAVANNAH       CLEAR     75  75 100 SE3       30.03S
$$

TNZ008-025-027-028-033-062-065-066-140500-
NORTH MIDDLE TENNESSEE

CITY           SKY/WX    TMP DP  RH WIND       PRES   REMARKS
NASHVILLE      PTCLDY    83  72  69 SW5       30.01S
CLARKSVILLE    PTCLDY    82  72  71 SW8       29.98S
COOKEVILLE     CLEAR     79  73  83 SW3       30.05R
CROSSVILLE     PTCLDY    73  68  84 VRB3      30.11S
$$

TNZ061-075-076-078-094-096-097-140500-
SOUTH MIDDLE TENNESSEE

CITY           SKY/WX    TMP DP  RH WIND       PRES   REMARKS
FAYETTEVILLE   PTCLDY    75  72  88 SW5       30.07S
TULLAHOMA      CLEAR     75  72  88 SW5       30.08S
WINCHESTER     CLEAR     75  72  88 CALM      30.07S
MCMINNVILLE    CLEAR     79  75  89 CALM      30.06S
COLUMBIA       CLEAR     79  73  83 S5        30.02S
SHELBYVILLE    CLEAR     77  73  88 S5        30.05S
$$

TNZ017-018-042-046-047-140500-
NORTHEAST TENNESSEE

CITY           SKY/WX    TMP DP  RH WIND       PRES   REMARKS
TRI CITIES     MOCLDY    73  68  84 CALM      30.07S
ELIZABETHTON   CLEAR     70  66  88 CALM      30.09S
$$

TNZ012-013-036-069-073-074-140500-
CENTRAL EAST TENNESSEE

CITY           SKY/WX    TMP DP  RH WIND       PRES   REMARKS
KNOXVILLE      PTCLDY    77  71  82 SW9       30.04S
OAK RIDGE      PTCLDY    77  73  87 CALM      30.05S
GATLINBURG     CLEAR     75  68  78 CALM      30.04F
$$

TNZ083-085-099-140500-
SOUTHEAST TENNESSEE

CITY           SKY/WX    TMP DP  RH WIND       PRES   REMARKS
CHATTANOOGA    PTCLDY    81  70  69 S3        30.05F
$$

SKY/WX REPORTED AS FAIR MEANS FEW OR NO CLOUDS BELOW
12 THOUSAND FEET.




USA.gov is the U.S. government's official web portal to all federal, state and local government web resources and services.